Morganton, NC

12:18 PM EDT on March 26, 2017 (GMT -0400)
Morganton-Lenoir

Weather History for KMRN - November, 2013

Change the Weather History Date:

Tuesday, November 26, 2013

  Actual Average (KHKY) Record (KHKY)
Temperature  
Mean Temperature 36 °F -  
Max Temperature 41 °F 57 °F 73 °F (1990)
Min Temperature 32 °F 36 °F 10 °F (1950)
Degree Days  
Heating Degree Days 28    
Moisture  
Dew Point 35 °F    
Average Humidity 98    
Maximum Humidity 100    
Minimum Humidity 73    
Precipitation  
Precipitation 2.10 in - - ()
Sea Level Pressure  
Sea Level Pressure 30.02 in    
Wind  
Wind Speed 3 mph (NNW)    
Max Wind Speed 9 mph    
Max Gust Speed -    
Visibility 4 miles    
Events Rain , Snow    
Averages and records for this station are not official NWS values.
T = Trace of Precipitation, MM = Missing Value Source: NWS Daily Summary

Daily Weather History Graph

Daily Weather History Graph

Search for Another Location

Airport or City:

Trip Planner

Search our weather history database for the weather conditions in past years. The results will help you decide how hot, cold, wet, or windy it might be!

Date:

Astronomy

Nov. 26, 2013 Rise Set
Actual Time 7:13 AM EST 5:13 PM EST
Civil Twilight 6:45 AM EST 5:41 PM EST
Nautical Twilight 6:14 AM EST 6:13 PM EST
Astronomical Twilight 5:43 AM EST 6:43 PM EST
Moon 12:28 AM EST 1:08 PM EST
Length of Visible Light 10h 55m
Length of Day
10h 00m
Last Quarter, 41% of the Moon is Illuminated
Nov 26
Last Quarter
Dec 2
New
Dec 9
First Quarter
Dec 17
Full
Dec 25
Last Quarter

Hourly Weather History & Observations

Time (EST) Temp. Windchill Dew Point Humidity Pressure Visibility Wind Dir Wind Speed Gust Speed Precip Events Conditions
12:15 AM 32.4 °F 27.9 °F 24.6 °F 73% 30.35 in 10.0 mi NNW 4.6 mph - N/A   Overcast
12:35 AM 32.0 °F 27.5 °F 26.1 °F 79% 30.35 in 10.0 mi NNW 4.6 mph - N/A   Overcast
12:55 AM 32.0 °F 28.7 °F 27.7 °F 84% 30.34 in 10.0 mi NNW 3.5 mph - N/A   Overcast
1:15 AM 32.0 °F 28.7 °F 28.9 °F 88% 30.33 in 10.0 mi North 3.5 mph - N/A   Overcast
1:35 AM 32.0 °F - 29.1 °F 89% 30.32 in 10.0 mi Calm Calm - N/A   Overcast
1:55 AM 32.0 °F 28.7 °F 29.7 °F 91% 30.31 in 10.0 mi NNW 3.5 mph - N/A   Overcast
2:15 AM 32.0 °F 27.5 °F 30.2 °F 93% 30.31 in 10.0 mi NW 4.6 mph - N/A   Overcast
2:35 AM 32.0 °F 28.7 °F 30.7 °F 95% 30.30 in 10.0 mi NNW 3.5 mph - N/A   Overcast
2:55 AM 32.0 °F - 30.7 °F 95% 30.29 in 10.0 mi Calm Calm - N/A   Overcast
3:15 AM 32.0 °F - 30.9 °F 96% 30.29 in 10.0 mi Calm Calm - N/A   Overcast
3:35 AM 32.0 °F - 31.1 °F 96% 30.29 in 5.0 mi Calm Calm - N/A   Overcast
3:55 AM 32.2 °F - 31.1 °F 96% 30.29 in 4.0 mi Calm Calm - N/A   Overcast
4:15 AM 32.2 °F - 31.1 °F 96% 30.28 in 4.0 mi Calm Calm - 0.02 in Snow Light Snow
4:35 AM 32.0 °F - 30.9 °F 96% 30.28 in 3.0 mi Calm Calm - 0.04 in Snow Light Snow
4:55 AM 32.0 °F - 30.9 °F 96% 30.27 in 4.0 mi Calm Calm - 0.06 in Snow Light Snow
5:15 AM 32.4 °F - 31.5 °F 96% 30.26 in 5.0 mi Calm Calm - N/A   Overcast
5:35 AM 32.4 °F - 32.0 °F 99% 30.26 in 4.0 mi Calm Calm - N/A   Overcast
5:55 AM 32.4 °F - 32.0 °F 99% 30.24 in 4.0 mi Calm Calm - N/A   Overcast
6:15 AM 32.5 °F - 32.0 °F 98% 30.23 in 5.0 mi Calm Calm - N/A   Overcast
6:35 AM 32.7 °F - 32.2 °F 98% 30.23 in 4.0 mi Calm Calm - N/A   Overcast
6:55 AM 32.5 °F - 32.2 °F 99% 30.22 in 2.5 mi Calm Calm - 0.01 in Snow Light Snow
7:15 AM 32.9 °F - 32.5 °F 99% 30.21 in 2.0 mi Calm Calm - 0.02 in Snow Light Snow
7:35 AM 32.9 °F - 32.9 °F 100% 30.20 in 2.5 mi Calm Calm - 0.03 in   Overcast
7:55 AM 32.9 °F - 32.9 °F 100% 30.19 in 1.2 mi Calm Calm - 0.07 in Snow Light Snow
8:15 AM 32.9 °F 29.8 °F 32.9 °F 100% 30.19 in 1.2 mi NNE 3.5 mph - 0.03 in Snow Light Snow
8:35 AM 33.3 °F - 33.3 °F 100% 30.19 in 1.2 mi Calm Calm - 0.08 in Snow Light Snow
8:55 AM 33.3 °F - 33.3 °F 100% 30.17 in 1.2 mi Calm Calm - 0.15 in Snow Light Snow
9:15 AM 33.8 °F - 33.8 °F 100% 30.17 in 1.2 mi Calm Calm - 0.03 in   Overcast
9:35 AM 33.8 °F - 33.8 °F 100% 30.15 in 1.0 mi Calm Calm - 0.08 in Snow Light Snow
9:55 AM 34.2 °F - 34.2 °F 100% 30.13 in 1.2 mi Calm Calm - 0.12 in   Overcast
10:15 AM 34.2 °F 29.0 °F 34.2 °F 100% 30.11 in 1.5 mi North 5.8 mph - 0.05 in   Overcast
10:35 AM 34.7 °F 30.6 °F 34.7 °F 100% 30.10 in 1.5 mi North 4.6 mph - 0.10 in   Overcast
10:55 AM 34.9 °F 30.8 °F 34.9 °F 100% 30.09 in 1.5 mi North 4.6 mph - 0.16 in   Overcast
11:15 AM 35.2 °F 30.3 °F 35.2 °F 100% 30.07 in 1.5 mi North 5.8 mph - 0.05 in   Overcast
11:35 AM 35.6 °F 29.9 °F 35.6 °F 100% 30.05 in 1.2 mi NNW 6.9 mph - 0.12 in   Overcast
11:55 AM 35.8 °F 30.1 °F 35.8 °F 100% 30.04 in 1.5 mi NNW 6.9 mph - 0.19 in   Overcast
12:15 PM 36.1 °F 31.4 °F 36.1 °F 100% 30.03 in 1.5 mi NNW 5.8 mph - 0.06 in   Overcast
12:35 PM 36.5 °F 32.7 °F 36.5 °F 100% 30.02 in 1.2 mi North 4.6 mph - 0.13 in   Overcast
12:55 PM 36.7 °F 32.9 °F 36.7 °F 100% 29.99 in 1.2 mi NNE 4.6 mph - 0.20 in   Overcast
1:15 PM 36.9 °F 30.7 °F 36.9 °F 100% 29.97 in 1.8 mi North 8.1 mph - 0.03 in Rain Heavy Rain
1:35 PM 36.9 °F 31.4 °F 36.9 °F 100% 29.95 in 1.5 mi North 6.9 mph - 0.10 in   Overcast
1:55 PM 36.9 °F 31.4 °F 36.9 °F 100% 29.94 in 1.2 mi North 6.9 mph - 0.18 in Rain Heavy Rain
2:15 PM 37.0 °F 30.4 °F 37.0 °F 100% 29.92 in 1.8 mi North 9.2 mph - 0.03 in Rain Heavy Rain
2:35 PM 37.0 °F 31.6 °F 37.0 °F 100% 29.90 in 1.2 mi NNE 6.9 mph - 0.10 in Rain Rain
2:55 PM 37.4 °F 32.1 °F 37.4 °F 100% 29.88 in 2.5 mi North 6.9 mph - 0.14 in Rain Rain
3:15 PM 37.4 °F 32.1 °F 37.4 °F 100% 29.87 in 1.2 mi NNE 6.9 mph - 0.09 in Rain Heavy Rain
3:35 PM 37.6 °F 34.0 °F 37.6 °F 100% 29.87 in 1.0 mi NNE 4.6 mph - 0.18 in Rain Light Rain
3:55 PM 37.9 °F 33.5 °F 37.9 °F 100% 29.85 in 1.0 mi North 5.8 mph - 0.29 in   Overcast
4:15 PM 38.8 °F 34.6 °F 38.8 °F 100% 29.83 in 2.0 mi NE 5.8 mph - 0.05 in Rain Rain
4:35 PM 40.1 °F 36.9 °F 40.1 °F 100% 29.80 in 7.0 mi NNE 4.6 mph - 0.06 in Rain Light Rain
4:55 PM 41.2 °F 37.3 °F 41.2 °F 100% 29.79 in 1.2 mi NW 5.8 mph - 0.15 in   Overcast
5:15 PM 40.1 °F 34.7 °F 40.1 °F 100% 29.79 in 1.2 mi NW 8.1 mph - 0.10 in   Unknown
5:35 PM 39.4 °F 35.2 °F 39.4 °F 100% 29.81 in 2.0 mi West 5.8 mph - 0.17 in Rain Rain
5:55 PM 39.6 °F 36.3 °F 39.6 °F 100% 29.79 in 5.0 mi WNW 4.6 mph - 0.18 in Rain Rain
6:15 PM 40.1 °F - 40.1 °F 100% 29.78 in 5.0 mi Calm Calm - 0.02 in Rain Rain
6:35 PM 40.3 °F 38.2 °F 40.3 °F 100% 29.77 in 5.0 mi NNW 3.5 mph - 0.02 in Rain Rain
7:15 PM 40.5 °F - 40.5 °F 100% 29.76 in 4.0 mi Calm Calm - N/A   Drizzle
7:35 PM 40.3 °F 37.1 °F 40.3 °F 100% 29.75 in 4.0 mi West 4.6 mph - N/A   Drizzle
7:55 PM 39.7 °F - 39.7 °F 100% 29.74 in 4.0 mi Calm Calm - N/A Rain Light Rain
8:15 PM 39.2 °F 35.0 °F 39.2 °F 100% 29.74 in 2.5 mi West 5.8 mph - N/A   Drizzle
8:35 PM 39.4 °F 36.1 °F 39.4 °F 100% 29.73 in 5.0 mi West 4.6 mph - 0.02 in Rain Rain
8:55 PM 39.6 °F - 39.6 °F 100% 29.71 in 4.0 mi Calm Calm - 0.07 in Rain Light Rain
9:15 PM 39.7 °F - 39.7 °F 100% 29.70 in 5.0 mi Calm Calm - 0.01 in Rain Rain
9:35 PM 39.7 °F - 39.7 °F 100% 29.69 in 4.0 mi Calm Calm - 0.04 in Rain Heavy Rain
9:55 PM 40.1 °F - 40.1 °F 100% 29.68 in 3.0 mi Calm Calm - 0.09 in Rain Light Rain
10:15 PM 40.1 °F 36.9 °F 40.1 °F 100% 29.69 in 5.0 mi West 4.6 mph - N/A Rain Light Rain
10:35 PM 39.9 °F - 39.9 °F 100% 29.68 in 7.0 mi Calm Calm - 0.02 in Rain Light Rain
10:55 PM 39.7 °F - 39.7 °F 100% 29.68 in 5.0 mi Calm Calm - 0.02 in Rain Light Rain
11:15 PM 39.9 °F - 39.9 °F 100% 29.68 in 4.0 mi Calm Calm - N/A Rain Light Rain
11:35 PM 40.1 °F - 40.1 °F 100% 29.68 in 4.0 mi Calm Calm - N/A Rain Rain
11:55 PM 40.1 °F - 40.1 °F 100% 29.67 in 3.0 mi Calm Calm - N/A   Drizzle